Preview of NWS' New Version of Forecast
This preview is not operational and should not be used for support decisions.
Latest weather observations around

Huntsville, Madison County Executive Airport (KMDQ)

Using English Units (Switch to International System of Units)
Date/ Time (CDT) Wind (mph) Vis. (mi) Weather Sky Cond. Temp (°F) Rel. Humidity Wind Chill (°F) Heat Index (°F) Pressure Precip. (in)
Air Dwpt 6 hour Altimeter (inHg) Sea level (inHg) 1 hr 3 hr 6 hr
Max Min
Sep 18 08:55 E 5 10 Clear CLR 75 68     78%   76 30.05        
Sep 18 08:35 ENE 3 10 Clear CLR 73 67     80%   74 30.05        
Sep 18 08:15 Calm 10 Clear CLR 71 66     84%   72 30.04        
Sep 18 07:55 Calm 10 Clear CLR 69 65     88%     30.04        
Sep 18 07:35 Calm 10 Clear CLR 67 65     92%     30.04        
Sep 18 07:15 Calm 7 Fog/Mist CLR 65 64     95%     30.04        
Sep 18 06:55 Calm 7 Fog/Mist CLR 64 63     96%     30.03        
Sep 18 06:35 Calm 7 Clear CLR 64 63     96%     30.03        
Sep 18 06:15 Calm 10 Clear CLR 64 63     95%     30.02        
Sep 18 05:55 Calm 7 Clear CLR 65 64     96%     30.02        
Sep 18 05:35 Calm 10 Clear CLR 65 63     95%     30.01        
Sep 18 05:15 N 3 10 Clear CLR 65 64     96%     30.01        
Sep 18 04:55 Calm 7 Clear CLR 65 64     96%     30        
Sep 18 04:35 Calm 10 Clear CLR 65 63     94%     30        
Sep 18 04:15 Calm 10 Clear CLR 67 64     92%     30        
Sep 18 03:55 Calm 10 Clear CLR 67 64     92%     29.99        
Sep 18 03:35 Calm 10 Clear CLR 67 65     92%     29.99        
Sep 18 03:15 NNW 3 10 Clear CLR 66 64     94%     29.99        
Sep 18 02:55 Calm 10 Clear CLR 69 66     91%     29.99        
Sep 18 02:35 Calm 10 Clear CLR 69 66     91%     30        
Sep 18 02:15 Calm 10 Clear CLR 68 66     92%     30        
Sep 18 01:55 Calm 10 Clear CLR 69 66     88%     30        
Sep 18 01:35 Calm 10 Clear CLR 70 66     89%     30        
Sep 18 01:15 Calm 10 Clear CLR 70 66     87%   71 30.01        
Sep 18 00:55 Calm 10 Clear CLR 70 66     87%   71 30.01        
Sep 18 00:35 N 3 10 Clear CLR 71 67     87%   71 30.01        
Sep 18 00:15 Calm 10 Clear CLR 71 67     86%   72 30.01        
Sep 17 23:55 Calm 10 Clear CLR 72 67     85%   72 30.01        
Sep 17 23:35 Calm 10 Clear CLR 72 67     84%   73 30.02        
Sep 17 23:15 Calm 10 Clear CLR 72 67     83%   73 30.02        
Sep 17 22:55 Calm 10 Clear CLR 73 67     81%   74 30.02        
Sep 17 22:35 Calm 10 Clear   73 67     81%   74 30.02        
Sep 17 22:15 Calm 10 Clear   74 67     80%   75 30.01        
Sep 17 21:55 Calm 10 Clear   75 69     83%   76 30.01        
Sep 17 21:35 Calm 10 Clear CLR 76 69     80%   77 30.01        
Sep 17 21:15 Calm 10 Clear CLR 77 69     76%   78 30        
Sep 17 20:55 Calm 10 Clear CLR 79 68     68%   80 30        
Sep 17 20:35 Calm 10 Clear CLR 79 67     67%   80 29.99        
Sep 17 20:15 Calm 10 Clear CLR 79 68     67%   82 29.98        
Sep 17 19:55 Calm 10 Partly Cloudy SCT070 80 67     64%   82 29.98        
Sep 17 19:35 NNW 3 10 Mostly Cloudy SCT070 BKN080 81 68     63%   84 29.97        
Sep 17 19:15 N 3 10 Partly Cloudy SCT075 81 69     66%   84 29.96        
Sep 17 18:55 NNW 5 10 Partly Cloudy SCT075 86 67     53%   88 29.96        
Sep 17 18:35 NNW 5 10 Clear CLR 88 66     49%   91 29.97        
Sep 17 18:15 NW 7 10 Clear CLR 89 65     45%   92 29.97        
Sep 17 17:55 NNW 7 10 Clear CLR 92 65     41%   94 29.96        
Sep 17 17:35 N 7 10 Clear CLR 94 65     38%   96 29.96        
Sep 17 17:15 NNW 14 10 Clear CLR 94 65     39%   97 29.97        
Sep 17 16:55 NNW 8 10 Clear CLR 94 65     38%   97 29.97        
Sep 17 16:35 N 11 10 Clear CLR 95 65     37%   97 29.97        
Sep 17 16:15 NNW 10 10 Partly Cloudy SCT070 95 65     38%   98 29.97        
Sep 17 15:55 NW 8 10 Partly Cloudy SCT070 95 65     38%   98 29.97        
Sep 17 15:35 NW 10 10 Clear CLR 93 65     40%   96 29.98        
Sep 17 15:15 W 8 10 Clear CLR 95 66     39%   98 29.98        
Sep 17 14:55 NNW 8 10 Partly Cloudy SCT065 SCT075 94 67     41%   99 29.99        
Sep 17 14:35 N 10 10 Partly Cloudy SCT065 SCT075 95 67     41%   99 30        
Sep 17 14:15 WNW 11 10 Partly Cloudy SCT065 94 67     41%   98 30.01        
Sep 17 13:55 NNW 7 10 Partly Cloudy SCT065 92 67     45%   95 30.02        
Sep 17 13:35 WNW 7 10 Partly Cloudy SCT060 91 67     46%   95 30.02        
Sep 17 13:15 NNW 14 10 Partly Cloudy SCT060 SCT070 94 68     43%   99 30.04        
Sep 17 12:55 WNW 7 10 Partly Cloudy SCT050 SCT070 93 67     43%   97 30.04        
Sep 17 12:35 W 8 10 Partly Cloudy SCT050 SCT070 93 69     45%   97 30.05        
Sep 17 12:15 N 9 10 Cloudy BKN050 OVC070 90 69     50%   95 30.05        
Sep 17 11:55 NE 6 10 Partly Cloudy SCT050 91 69     48%   96 30.06        
Sep 17 11:35 N 6 5 Haze SCT050 90 69     50%   95 30.06        
Sep 17 11:15 WNW 6 10 Clear CLR 90 69     50%   95 30.07        
Sep 17 10:55 SSW 5 10 Clear CLR 89 70     54%   94 30.07        
Sep 17 10:35 Calm 10 Clear CLR 86 68     56%   89 30.07        
Sep 17 10:15 Calm 7 Clear CLR 84 68     57%   87 30.07        
Sep 17 09:55 Calm 10 Clear CLR 83 68     61%   86 30.07        
Sep 17 09:35 Calm 10 Clear CLR 81 68     65%   83 30.07        
Sep 17 09:15 Calm 10 Clear CLR 78 67     68%   79 30.07        
Sep 17 08:55 Calm 10 Clear CLR 76 68     75%   77 30.07        
Sep 17 08:35 Calm 10 Clear CLR 75 68     79%   76 30.07        
Sep 17 08:15 Calm 7 Clear CLR 72 67     84%   73 30.07        
Sep 17 07:55 Calm 10 Clear CLR 71 67     88%   72 30.06        
Sep 17 07:35 Calm 10 Clear CLR 69 66     92%     30.06        
Sep 17 07:15 Calm 10 Clear CLR 68 65     92%     30.06        
Sep 17 06:55 Calm 7 Clear CLR 66 65     96%     30.06        
Sep 17 06:35 Calm 7 Clear CLR 66 65     96%     30.05        
Sep 17 06:15 Calm 7 Fog/Mist CLR 66 65     97%     30.05        
Sep 17 05:55 Calm 10 Clear CLR 66 65     96%     30.04        
Sep 17 05:35 Calm 10 Clear CLR 66 65     96%     30.04        
Sep 17 05:15 Calm 7 Clear CLR 66 65     96%     30.03        
Sep 17 04:55 Calm 10 Clear CLR 67 65     95%     30.02        
Sep 17 04:35 Calm 10 Clear CLR 67 65     96%     30.02        
Sep 17 04:15 Calm 10 Clear CLR 66 65     96%     30.02        
Sep 17 03:55 Calm 10 Clear CLR 67 65     95%     30.02        
Sep 17 03:35 Calm 10 Clear CLR 67 65     93%     30.02        
Sep 17 03:15 Calm 10 Clear CLR 67 65     94%     30.02        
Sep 17 02:55 N 5 10 Clear CLR 67 65     94%     30.02        
Sep 17 02:35 Calm 10 Clear CLR 69 67     93%     30.02        
Sep 17 02:15 Calm 10 Clear CLR 68 66     95%     30.03        
Sep 17 01:55 Calm 10 Clear CLR 68 66     94%     30.03        
Sep 17 01:35 Calm 10 Clear CLR 70 67     91%     30.03        
Sep 17 01:15 Calm 10 Clear CLR 69 67     94%     30.03        
Sep 17 00:55 S 3 10 Clear CLR 70 67     89%   71 30.04        
Sep 17 00:35 Calm 10 Clear CLR 70 67     91%     30.04        
Sep 17 00:15 Calm 10 Clear CLR 70 68     91%   71 30.04        
Sep 16 23:55 NE 3 10 Clear CLR 70 67     91%   71 30.04        
Sep 16 23:35 NW 3 10 Clear CLR 69 67     92%     30.04        
Sep 16 23:15 Calm 10 Clear CLR 72 68     88%   73 30.04        
Sep 16 22:55 Calm 10 Clear CLR 71 68     89%   72 30.04        
Sep 16 22:35 Calm 7 Clear CLR 71 68     89%   72 30.04        
Sep 16 22:15 Calm 10 Clear CLR 72 68     88%   73 30.04        
Sep 16 21:55 Calm 10 Clear CLR 73 68     86%   74 30.03        
Sep 16 21:35 Calm 10 Clear CLR 73 67     81%   74 30.03        
Sep 16 21:15 Calm 10 Clear CLR 74 67     79%   75 30.03        
Sep 16 20:55 Calm 10 Clear CLR 75 69     82%   76 30.03        
Sep 16 20:35 Calm 10 Clear CLR 76 68     77%   77 30.03        
Sep 16 20:15 Calm 10 Clear CLR 77 68     73%   78 30.02        
Sep 16 19:55 Calm 10 Clear CLR 78 68     72%   79 30.02        
Sep 16 19:35 Calm 10 Clear CLR 80 67     64%   82 30.02        
Sep 16 19:15 Calm 10 Clear CLR 81 67     61%   84 30.02        
Sep 16 18:55 Calm 10 Clear CLR 83 67     59%   86 30.02        
Sep 16 18:35 NE 3 10 Clear CLR 86 69     57%   90 30.02        
Sep 16 18:15 E 3 5 Haze CLR 89 67     49%   92 30.02        
Sep 16 17:55 N 3 10 Clear CLR 92 63     38%   93 30.02        
Sep 16 17:35 N 7 10 Clear CLR 94 61     34%   94 30.02        
Sep 16 17:15 NNE 7 10 Clear CLR 94 62     35%   95 30.02        
Sep 16 16:55 NE 7 10 Partly Cloudy SCT075 94 63     35%   96 30.02        
Sep 16 16:35 E 6 7 Clear CLR 95 63     35%   96 30.02        
Sep 16 16:15 N 7 10 Clear CLR 95 63     35%   96 30.03        
Sep 16 15:55 NNW 5 10 Clear CLR 95 61     32%   96 30.03        
Sep 16 15:35 NNE 8 10 Partly Cloudy SCT070 94 63     36%   96 30.03        
Sep 16 15:15 N 6 10 Mostly Cloudy BKN070 94 64     37%   96 30.04        
Sep 16 14:55 ENE 7 10 Partly Cloudy SCT070 95 65     37%   98 30.04        
Sep 16 14:35 NNE 3 10 Partly Cloudy SCT070 94 65     38%   96 30.05        
Sep 16 14:15 NNW 6 10 Partly Cloudy SCT070 93 66     41%   96 30.06        
Sep 16 13:55 NE 9 10 Partly Cloudy SCT070 95 64     36%   97 30.06        
Sep 16 13:35 NE 9 10 Partly Cloudy SCT070 94 63     35%   95 30.07        
Sep 16 13:15 NNE 10 10 Partly Cloudy SCT065 95 63     36%   97 30.08        
Sep 16 12:55 NE 9 10 Partly Cloudy SCT065 94 64     38%   96 30.09        
Sep 16 12:35 NNE 9 10 Mostly Cloudy BKN065 93 64     38%   95 30.1        
Sep 16 12:15 E 3 10 Clear CLR 93 64     39%   95 30.11        
Sep 16 11:55 NNW 10 7 Clear CLR 92 66     42%   96 30.11        
Sep 16 11:35 Calm 7 Clear CLR 90 65     43%   92 30.12        
Sep 16 11:15 SW 5 10 Clear CLR 89 65     46%   91 30.13        
Sep 16 10:55 Calm 10 Clear CLR 87 63     46%   88 30.13        
Sep 16 10:35 Calm 10 Clear CLR 86 63     47%   87 30.14        
Sep 16 10:15 Calm 7 Clear CLR 85 65     51%   86 30.14        
Sep 16 09:55 Calm 7 Clear CLR 82 68     61%   85 30.14        
Sep 16 09:35 SSE 3 10 Clear CLR 80 67     65%   82 30.15        
Sep 16 09:15 Calm 10 Clear CLR 78 68     70%   79 30.15        
Sep 16 08:55 Calm 10 Clear CLR 76 67     74%   77 30.15        
Sep 16 08:35 Calm 7 Clear CLR 73 67     81%   74 30.14        
Sep 16 08:15 Calm 10 Clear CLR 72 67     85%   73 30.14        
Sep 16 07:55 Calm 10 Clear CLR 70 66     88%     30.14        
Sep 16 07:35 Calm 10 Clear CLR 68 66     93%     30.14        
Sep 16 07:15 Calm 10 Clear CLR 66 65     96%     30.13        
Sep 16 06:55 Calm 10 Clear CLR 64 63     96%     30.13        
Sep 16 06:35 Calm 10 Clear CLR 65 64     97%     30.12        
Sep 16 06:15 Calm 7 Clear CLR 65 64     97%     30.12        
Sep 16 05:55 Calm 7 Clear CLR 65 64     96%     30.11        
Sep 16 05:35 Calm 10 Clear CLR 65 64     97%     30.11        
Sep 16 05:15 Calm 10 Clear CLR 65 65     97%     30.1        
Sep 16 04:55 Calm 10 Clear CLR 66 65     96%     30.1        
Sep 16 04:35 Calm 7 Fog/Mist CLR 66 65     97%     30.1        
Sep 16 04:15 N 3 10 Clear CLR 66 64     95%     30.1        
Sep 16 03:55 S 3 10 Clear CLR 67 65     93%     30.09        
Sep 16 03:35 Calm 10 Clear CLR 67 65     95%     30.09        
Sep 16 03:15 N 3 10 Clear CLR 67 65     95%     30.09        
Sep 16 02:55 NNE 3 10 Clear CLR 67 65     95%     30.09        
Sep 16 02:35 Calm 10 Clear CLR 69 67     93%     30.09        
Sep 16 02:15 Calm 10 Clear CLR 68 67     95%     30.09        
Sep 16 01:55 Calm 10 Clear CLR 68 67     94%     30.09        
Sep 16 01:35 Calm 10 Clear CLR 68 66     93%     30.1        
Sep 16 01:15 Calm 10 Clear CLR 68 66     94%     30.09        
Sep 16 00:55 Calm 10 Clear CLR 69 67     93%     30.1        
Sep 16 00:35 Calm 10 Clear CLR 70 67     89%     30.1        
Sep 16 00:15 Calm 10 Clear CLR 69 66     91%     30.1        
Sep 15 23:55 NNW 3 10 Clear CLR 70 67     92%     30.1        
Sep 15 23:35 Calm 10 Clear CLR 71 69     91%   73 30.1        
Sep 15 23:15 Calm 10 Clear CLR 71 67     89%   72 30.1        
Sep 15 22:55 Calm 10 Clear CLR 71 68     88%   72 30.1        
Sep 15 22:35 N 3 10 Clear CLR 72 68     86%   73 30.1        
Sep 15 22:15 Calm 10 Clear CLR 73 68     85%   74 30.1        
Sep 15 21:55 Calm 10 Clear CLR 74 69     87%   75 30.09        
Sep 15 21:35 Calm 10 Clear CLR 74 69     84%   75 30.09        
Sep 15 21:15 Calm 10 Clear CLR 75 70     83%   76 30.08        
Sep 15 20:55 Calm 10 Clear CLR 75 68     78%   76 30.08        
Sep 15 20:35 Calm 10 Clear CLR 76 70     81%   77 30.08        
Sep 15 20:15 Calm 10 Clear CLR 77 68     74%   78 30.07        
Sep 15 19:55 Calm 10 Clear CLR 79 67     68%   79 30.07        
Sep 15 19:35 Calm 10 Clear CLR 80 67     66%   82 30.06        
Sep 15 19:15 Calm 10 Clear CLR 81 66     59%   83 30.06        
Sep 15 18:55 Calm 10 Clear CLR 83 68     62%   86 30.06        
Sep 15 18:35 Calm 10 Clear CLR 87 66     49%   89 30.05        
Sep 15 18:15 N 5 10 Clear CLR 92 61     36%   92 30.06        
Sep 15 17:55 NNE 7 10 Clear CLR 92 59     33%   92 30.05        
Sep 15 17:35 NE 6 10 Clear CLR 93 62     36%   93 30.05        
Sep 15 17:15 ENE 5 10 Clear CLR 94 63     37%   95 30.05        
Sep 15 16:55 N 8 10 Clear CLR 94 62     34%   94 30.05        
Sep 15 16:35 NE 8 10 Clear CLR 94 61     33%   95 30.05        
Sep 15 16:15 NE 8 10 Clear CLR 94 60     33%   94 30.06        
Sep 15 15:55 NNE 8 10 Clear CLR 95        %     30.07        
Sep 15 15:35 NNE 8 10 Clear CLR 94 62     35%   94 30.07        
Sep 15 15:15 N 8 10 Clear CLR 93 63     36%   94 30.08        
Sep 15 14:55 NNE 3 10 Clear CLR 94 63     36%   95 30.09        
Sep 15 14:35 NNE 10 10 Clear CLR 93 65     39%   95 30.1        
Sep 15 14:15 ENE 7 10 Partly Cloudy SCT055 92 65     40%   95 30.11        
Sep 15 13:55 N 10 10 Partly Cloudy SCT055 92 68     45%   97 30.12        
Sep 15 13:35 NE 9 10 Partly Cloudy SCT049 92 67     43%   96 30.13        
Sep 15 13:15 NNW 3 10 Mostly Cloudy BKN049 89 68     50%   94 30.14        
Sep 15 12:55 NNW 5 10 Partly Cloudy SCT047 90 70     52%   95 30.14        
Sep 15 12:35 Calm 10 Mostly Cloudy BKN040 90 70     52%   95 30.16        
Sep 15 12:15 ESE 3 10 Mostly Cloudy BKN040 88 71     57%   93 30.17        
Sep 15 11:55 N 3 7 Partly Cloudy SCT038 SCT044 88 71     57%   94 30.17        
Sep 15 11:35 N 6 7 Clear CLR 87 71     58%   93 30.18        
Sep 15 11:15 W 3 10 Clear CLR 86 71     61%   92 30.18        
May 15 10:55 SSW 8 10 Clear CLR 85 68     56%   88 30        
Notice The following observation data may not be complete
May 15 09:55   10 Clear CLR          %              
May 14 19:55 ESE 3 10 Clear   78 66     66%   78 29.95        
May 14 17:35 N 3 10 Clear CLR 88 61     41%   88 29.96        
May 14 09:55 N 3 10 Clear CLR 82 66     59%   84 30.08        
May 14 02:35 Calm 7 Clear CLR 65 64     97%     30.03        
May 14 01:15 Calm 10 Clear CLR 66 65     95%     30.06        
May 14 00:55 Calm 10 Clear CLR 66 64     94%     30.06        
May 14 00:15 Calm 10 Clear CLR 67 65     93%     30.08        
May 13 23:35 Calm 10 Clear CLR 68 66     92%     30.08        
May 13 10:15 WSW 8 10 Clear CLR 83 62     49%   84 30.16        
Notice The following observation data may not be complete
May 13 02:55   10 Clear CLR          %              
May 13 00:35 Calm 10 Clear CLR 63 60     90%     30.09        
May 12 23:55 SSE 3 10 Clear CLR 66 61     84%     30.08        
May 12 21:15 Calm 10 Clear CLR 69 62     78%     30.1        
May 12 17:15 SSW 8 10 Clear CLR 86 56     36%   85 30.09        
May 12 16:55 WNW 8 10 Clear CLR 86 56     36%   85 30.09        
May 12 16:35 NW 7 10 Clear CLR 87 56     35%   85 30.09        
Notice The following observation data may not be complete
May 12 15:35   10 Clear CLR          %              
May 11 21:35 S 8 10 Clear CLR 74 58     59%   73 30.06        
May 11 21:15 S 6 10 Clear CLR 73 60     63%   73 30.06        
May 11 17:15 SW 14 10 Clear CLR 87 60     41%   86 30.05        
Notice The following observation data may not be complete
May 11 13:15   10 Clear CLR          %              
Notice The following observation data may not be complete
Jun 12 08:35   10 Mostly Cloudy SCT018 BKN026 BKN100          %              
Jun 12 04:15 Calm 10 Clear CLR 72 66     83%   72 30.12        
Jun 12 04:00 Calm 10 Clear CLR 72 66     83%   72 30.12        
Jun 12 00:15 Calm 10 Clear CLR 70 66     88%     30.12        
Jun 11 12:55 SE 7 10 Partly Cloudy SCT047 SCT055 86        %     30.16        
Jun 11 11:55 SSE 9 10 Partly Cloudy SCT065 84        %     30.17        
Jun 11 06:55 ESE 3 10 Clear CLR 68 61     78%     30.14        
Jun 11 02:35 Calm 10 Clear   63 61     94%     30.1        
Jun 11 02:15 Calm 10 Clear CLR 63 61     94%     30.11        
Jun 09 23:35 Calm 10 Partly Cloudy SCT060 63 59     88%     30.01        
Jun 09 21:35 Calm 10 Clear CLR 64 59     83%     29.98        
Jun 09 20:15 Calm 10 Clear CLR 70 59     69%     29.95        
Notice The following observation data may not be complete
Jun 09 19:15   10 Clear CLR          %              
Jun 09 18:55 Calm 10 Clear CLR 79        %     29.94        
Jun 09 16:35 Calm 10 Clear CLR 79        %     29.95        
Jun 09 10:15 ESE 3 10 Clear CLR 73 55     53%   73 30        
Notice The following observation data may not be complete
Jun 09 04:35   10 Clear CLR          %              
Jun 09 03:35 Calm 10 Clear CLR 55 54     94%     29.93        
Jun 08 21:35 Calm 10 Clear CLR 63 54     72%     29.92        
Jun 08 20:35 N 3 10 Clear CLR 68 54     60%     29.9        
Jun 08 07:55 N 6 10 Clear CLR 61 54     77%     29.96        
Jun 08 06:55 Calm 10 Clear CLR 57 54     88%     29.94        
Jun 07 14:55 N 13 10 Partly Cloudy SCT060 77        %     29.88        
Jun 07 13:55 NNE 11 10 Partly Cloudy SCT060 79        %     29.88        
Jun 07 12:35 NNE 11 10 Clear   77        %     29.9        
Notice The following observation data may not be complete
Jun 06 15:15   10 Clear CLR          %              
Jun 06 07:15 Calm 10 Mostly Cloudy SCT060 BKN080 68 68     100%     29.83        
Jun 06 06:55 Calm 7 Light Rain SCT033 BKN060 OVC085 68 68     100%     29.84   0    
Jun 06 05:55 Calm 10 Light Rain BKN003 OVC009 68 68     100%     29.83        
Jun 06 03:55 Calm 10 Mostly Cloudy BKN007 BKN110 68 66     94%     29.81        
Jun 05 19:15 Calm 10 Light Drizzle SCT050 73 68     83%   74 29.8